DW3212 Weather Reports


time (UTC)temp
F
wind
direction
speed
knots
gust
knots
rain 1hr
in
rain 24hr
in
rain mn
in
humidity
%
barometer
mb
20260906103059 53 0.0 0.0 0.09 0.13 0.11 96 1015.5
20260906101601 53 0.0 0.0 0.08 0.12 0.10 96 1015.4
20260906100111 53 0.0 0.0 0.01 0.05 0.03 96 1015.3
20260906094614 53 0.0 0.0 0.00 0.04 0.02 96 1015.2
20260906093105 53 0.0 0.0 0.00 0.04 0.02 96 1015.1
20260906091601 53 0.0 0.0 0.00 0.04 0.02 96 1014.9
20260906090115 53 0.0 0.0 0.00 0.04 0.02 96 1014.8
20260906084606 53 0.0 0.0 0.00 0.04 0.02 96 1014.8
20260906083102 53 0.0 0.0 0.00 0.04 0.02 96 1014.8
20260906081603 53 0.0 0.0 0.01 0.04 0.02 96 1014.7
20260906080103 53 0.0 0.0 0.01 0.04 0.02 96 1014.6
20260906074607 53 0.0 0.0 0.01 0.04 0.02 96 1014.8
20260906073105 53 0.0 0.0 0.01 0.04 0.02 95 1014.7
20260906071610 53 0.0 0.0 0.00 0.03 0.01 95 1014.7
20260906070107 53 0.0 0.0 0.00 0.03 0.01 95 1014.6
20260906064609 53 0.0 0.0 0.00 0.03 0.01 95 1014.7
20260906063101 53 0.0 0.0 0.00 0.03 0.01 95 1014.7
20260906061607 53 0.0 0.0 0.00 0.03 0.01 95 1014.9
20260906060106 53 0.0 0.0 0.00 0.03 0.01 95 1015.0
20260906054603 54 0.0 0.0 0.00 0.03 0.01 95 1015.0
20260906053100 54 0.0 0.0 0.00 0.03 0.01 95 1015.0
20260906051600 54 0.0 0.0 0.01 0.03 0.01 94 1014.9
20260906050105 54 0.0 0.0 0.01 0.03 0.01 95 1015.0
20260906044603 54 0.0 0.0 0.01 0.03 0.01 94 1015.0
20260906043059 54 0.0 0.0 0.01 0.03 0.01 94 1015.2
20260906041600 54 0.0 0.0 0.02 0.02 0.00 94 1015.2
20260906040104 55 0.0 0.0 0.02 0.02 0.00 94 1015.0
20260906034557 55 0.0 0.0 0.02 0.02 0.02 94 1015.0
20260906033106 56 0.0 0.0 0.02 0.02 0.02 94 1014.8
20260906031604 57 0.0 0.0 0.00 0.00 0.00 93 1014.7
20260906030101 58 0.0 0.0 0.00 0.00 0.00 93 1014.5
20260906024601 58 0.0 0.0 0.00 0.00 0.00 92 1014.3
20260906023103 58 0.0 0.0 0.00 0.00 0.00 92 1014.4
20260906021603 58 0.0 0.0 0.00 0.00 0.00 92 1014.4
20260906020100 57 0.0 0.0 0.00 0.00 0.00 93 1014.3
20260906014616 57 0.0 0.0 0.00 0.00 0.00 93 1014.1
20260906013107 57 0.0 0.0 0.00 0.00 0.00 92 1014.1
20260906011618 57 0.0 0.0 0.00 0.00 0.00 92 1014.3
20260906004619 57 0.0 0.0 0.00 0.00 0.00 91 1014.2
20260906003103 57 0.0 0.0 0.00 0.00 0.00 90 1014.1
20260906001603 58 0.0 0.0 0.00 0.00 0.00 90 1014.0
20260906000105 58 0.0 0.0 0.00 0.00 0.00 89 1014.1
20260905234606 59 0.0 0.0 0.00 0.00 0.00 89 1013.8
20260905233130 59 0.0 0.0 0.00 0.00 0.00 88 1013.7
20260905231559 60 0.0 0.0 0.00 0.00 0.00 86 1013.5
20260905230104 61 0.0 0.0 0.00 0.00 0.00 86 1013.5
20260905224622 61 0.0 0.0 0.00 0.00 0.00 85 1013.4
20260905223106 62 0.0 0.0 0.00 0.00 0.00 84 1013.3
20260905221604 62 0.0 0.0 0.00 0.00 0.00 84 1013.3
20260905220106 63 0.0 0.0 0.00 0.00 0.00 82 1013.2
20260905214605 63 0.0 0.0 0.00 0.00 0.00 82 1013.2
20260905213105 63 0.0 0.0 0.00 0.00 0.00 82 1013.1
20260905211603 63 0.0 0.0 0.00 0.00 0.00 82 1013.0
20260905204559 63 0.0 0.0 0.00 0.00 0.00 81 1012.9
20260905203107 63 0.0 0.0 0.00 0.00 0.00 84 1012.8
20260905201611 65 0.0 0.0 0.00 0.00 0.00 78 1012.7
20260905200110 66 0.0 0.0 0.00 0.00 0.00 79 1012.4
20260905194605 64 0.0 0.0 0.00 0.00 0.00 84 1012.5
20260905193116 63 0.0 0.0 0.00 0.00 0.00 84 1012.6
20260905191610 64 0.0 0.0 0.00 0.00 0.00 83 1012.6
20260905190134 66 0.0 0.0 0.00 0.00 0.00 75 1012.5
20260905184622 66 0.0 0.0 0.00 0.00 0.00 72 1012.5
20260905183103 65 0.0 0.0 0.00 0.00 0.00 76 1012.4
20260905181603 65 0.0 0.0 0.00 0.00 0.00 77 1012.5
20260905174605 67 0.0 0.0 0.00 0.00 0.00 71 1012.4
20260905173104 66 0.0 0.0 0.00 0.00 0.00 75 1012.5
20260905171602 65 0.0 0.0 0.00 0.00 0.00 74 1012.3
20260905170118 65 0.0 0.0 0.00 0.00 0.00 77 1012.5
20260905164604 64 0.0 0.0 0.00 0.00 0.00 77 1012.4
20260905163106 65 0.0 0.0 0.00 0.00 0.00 75 1012.4
20260905161601 65 0.0 0.0 0.00 0.00 0.00 72 1012.4
20260905160059 66 0.0 0.0 0.00 0.00 0.00 72 1012.4
20260905154609 67 0.0 0.0 0.00 0.00 0.00 70 1012.5
20260905153104 66 0.0 0.0 0.00 0.00 0.00 74 1012.6
20260905151604 65 0.0 0.0 0.00 0.00 0.00 76 1012.5
20260905150057 65 0.0 0.0 0.00 0.00 0.00 77 1012.5
20260905144601 62 0.0 0.0 0.00 0.00 0.00 81 1012.6
20260905143104 64 0.0 0.0 0.00 0.00 0.00 76 1012.6
20260905141628 66 0.0 0.0 0.00 0.00 0.00 77 1012.5
20260905140100 64 0.0 0.0 0.00 0.00 0.00 78 1012.6
20260905134602 62 0.0 0.0 0.00 0.00 0.00 84 1012.5
20260905133101 61 0.0 0.0 0.00 0.00 0.00 83 1012.7
20260905131631 61 0.0 0.0 0.00 0.00 0.00 85 1012.6
20260905130116 61 0.0 0.0 0.00 0.00 0.00 82 1012.6
20260905124603 62 0.0 0.0 0.00 0.00 0.00 81 1012.4
20260905123110 60 0.0 0.0 0.00 0.00 0.00 85 1012.3
20260905121603 61 0.0 0.0 0.00 0.00 0.00 84 1012.2
20260905114557 61 0.0 0.0 0.00 0.00 0.00 82 1011.9
20260905113117 60 0.0 0.0 0.00 0.00 0.00 85 1011.6
20260905111602 58 0.0 0.0 0.00 0.00 0.00 88 1011.6
20260905110101 57 0.0 0.0 0.00 0.00 0.00 91 1011.7
20260905104602 55 0.0 0.0 0.00 0.00 0.00 94 1011.6